Wind_Speed
47 48 48 48 49 50 51 53 54 54 53 53 54 54 55 55 55 55 55 54 54 54 55 55 55 55 56 56 56 57 57 58 58 58 58 58 57 57
48 49 50 50 51 51 53 53 54 54 54 52 52 53 53 53 53 53 53 54 53 54 55 55 55 55 55 54 54 55 55 55 55 55 55 55 55 54
49 50 51 52 52 52 53 53 53 54 53 51 50 51 52 53 53 52 52 53 53 54 54 53 53 53 53 53 53 52 52 52 52 53 53 53 52 51
50 51 51 52 53 53 53 53 53 53 52 50 50 50 50 51 51 52 52 53 53 53 53 53 53 52 52 52 51 51 51 51 52 51 51 49 48 48
51 51 51 52 52 53 53 53 52 51 50 50 50 49 50 51 51 52 52 52 52 53 52 52 52 52 52 51 51 51 51 50 50 50 49 47 47 46
51 51 51 51 52 52 52 52 51 50 51 51 50 51 51 51 51 51 51 51 51 51 51 51 51 51 51 51 51 50 49 48 48 48 47 46 46 46
51 50 50 51 51 51 50 50 51 51 52 51 51 51 51 51 51 52 51 50 50 51 51 51 51 51 50 50 49 49 48 47 47 46 45 45 45 45
50 50 50 50 50 50 50 50 50 51 52 52 52 52 51 51 51 51 51 50 50 51 51 50 50 50 49 48 48 47 47 46 45 45 44 44 44 44
50 50 49 50 50 50 50 51 51 52 52 52 52 51 51 51 51 51 50 50 50 51 50 49 49 49 48 47 47 46 45 45 44 43 42 42 42 43
50 50 50 49 49 50 51 50 50 50 50 51 51 50 50 51 51 50 50 50 50 50 50 49 48 48 48 47 46 46 45 44 43 42 42 42 42 42
49 49 49 50 50 51 50 50 49 49 49 49 50 50 50 50 50 50 50 49 49 48 48 48 47 47 46 46 45 44 44 43 43 42 42 42 41 41
49 49 49 50 50 50 49 49 48 48 48 48 49 49 49 49 49 49 49 49 48 47 46 46 46 45 44 43 43 42 42 42 42 42 41 41 40 39
48 48 49 49 49 48 48 47 47 47 47 48 48 48 47 48 48 48 48 47 46 45 44 44 44 44 43 42 41 40 40 40 40 40 39 39 38 38
47 47 47 46 46 46 46 45 45 46 46 46 47 47 47 47 47 47 47 46 45 44 43 43 43 42 41 39 38 38 39 39 38 38 38 37 36 36
45 45 45 45 45 45 44 44 45 45 45 46 46 46 46 46 46 45 44 43 43 42 41 41 40 39 38 37 37 37 37 36 36 36 36 35 35 35
43 43 44 44 44 44 44 43 44 44 44 44 44 44 44 44 43 42 41 40 40 40 39 39 38 38 37 37 37 36 36 35 34 35 35 34 34 34
42 42 42 42 42 43 43 43 43 42 42 42 42 42 41 41 40 39 38 38 38 38 38 38 38 37 37 36 36 35 34 34 33 33 33 33 32 32
40 40 40 41 42 42 42 41 41 41 40 40 40 39 38 37 37 37 37 37 37 37 36 36 35 35 35 35 35 34 33 33 33 33 32 31 30 30
39 40 40 40 41 40 39 39 39 38 38 37 36 36 35 35 35 35 36 36 36 35 34 34 33 33 33 33 33 34 33 32 32 31 30 29 28 28
38 39 39 39 39 38 37 37 36 35 35 35 34 34 34 34 34 34 35 35 34 34 33 33 33 32 32 32 32 32 32 31 30 29 28 28 27 26
36 37 36 36 36 35 35 34 33 33 33 32 32 32 33 33 33 34 34 33 33 33 32 32 32 32 32 32 31 30 30 29 28 27 26 25 24 23
34 33 33 33 33 33 32 32 31 32 31 31 31 32 32 32 33 33 33 33 32 32 31 31 31 31 30 30 29 28 27 25 24 23 23 22 21 19
31 31 31 31 31 31 30 30 31 31 31 31 31 31 31 32 33 33 32 31 31 30 30 29 28 28 28 27 26 25 23 22 20 20 20 20 19 17
Wind_Direction
282 283 285 285 287 288 289 289 290 291 291 292 292 292 292 293 293 294 294 293 293 293 293 293 293 292 292 291 290 289 288 287 285 285 284 283 281 279
283 284 285 286 287 289 289 289 290 291 292 292 292 292 293 294 294 294 294 294 295 295 295 295 295 295 294 294 293 291 289 288 287 285 285 283 281 279
284 285 286 286 287 288 289 289 290 291 292 292 292 293 294 294 294 295 295 295 296 296 296 297 297 297 296 295 294 293 291 289 288 287 285 283 281 280
284 285 286 287 288 288 288 289 291 292 292 292 294 294 294 295 295 295 296 296 296 297 297 297 297 296 296 296 295 294 292 290 289 287 286 284 283 280
285 285 286 287 288 288 288 289 290 291 292 293 294 295 295 295 295 295 296 297 297 297 297 297 298 298 298 297 296 295 294 292 290 288 287 284 283 281
285 285 286 287 287 288 289 289 289 290 291 293 294 295 295 295 295 296 296 297 297 297 297 298 299 299 299 298 297 297 296 295 292 290 288 285 284 282
285 285 286 287 287 288 288 288 289 289 291 292 294 295 295 295 296 296 296 296 296 297 298 299 299 300 300 299 298 298 297 295 293 291 289 287 285 283
284 285 286 287 286 287 287 288 290 291 292 293 294 294 295 296 296 296 296 296 296 297 298 299 299 300 300 300 299 298 297 296 294 292 290 288 286 285
284 285 286 286 286 286 287 288 290 291 292 293 294 294 295 296 296 296 296 297 298 298 298 298 298 299 300 300 300 299 299 297 295 293 291 290 288 287
284 285 286 286 286 286 287 288 290 291 292 293 294 294 295 296 297 297 297 298 299 299 298 298 299 299 300 300 300 299 298 297 295 293 292 291 290 289
284 285 285 285 286 287 288 289 289 290 291 293 294 295 296 297 298 298 298 299 299 299 299 299 299 300 300 300 300 299 298 296 294 294 293 292 291 291
283 284 285 286 287 288 288 289 290 290 291 293 294 295 296 297 298 299 300 300 300 299 299 299 300 300 299 300 300 299 298 296 294 294 293 292 291 291
282 283 285 286 287 287 289 290 290 291 292 294 295 296 297 298 299 300 300 300 300 300 300 300 300 300 300 300 299 299 298 296 295 295 294 294 293 292
282 283 285 286 287 288 289 290 290 291 293 294 295 296 297 298 299 299 299 299 299 300 300 301 302 302 302 301 300 300 298 297 296 296 296 295 294 294
283 284 285 286 286 288 289 290 291 292 293 295 296 297 298 298 298 299 299 299 300 301 301 302 303 303 303 303 303 302 300 298 298 297 298 296 295 295
283 284 285 286 287 288 289 290 291 292 294 296 296 297 299 299 299 299 299 299 300 301 302 302 303 303 303 303 303 304 302 299 297 297 298 298 297 296
281 283 284 285 287 288 290 291 291 293 294 296 297 299 299 300 299 299 300 301 301 302 302 302 302 303 302 303 303 304 303 300 298 298 298 299 298 297
280 282 284 286 287 289 290 291 292 293 295 297 298 298 299 299 299 300 301 302 303 303 302 302 302 302 303 304 305 305 304 302 301 300 299 299 298 298
282 283 284 285 287 288 289 291 292 293 295 297 298 298 299 299 300 301 302 303 303 303 302 302 302 303 304 305 305 305 304 302 301 301 300 299 300 300
283 284 285 287 287 287 288 290 291 293 294 296 297 298 299 300 301 302 303 304 304 303 302 303 304 305 306 307 307 307 305 304 303 302 301 301 301 301
283 285 285 286 285 286 287 289 292 293 295 296 297 299 300 301 302 304 305 305 304 303 303 305 306 307 307 308 308 308 307 305 304 304 304 305 305 304
284 284 285 285 286 287 288 290 291 293 295 296 298 299 300 302 304 305 305 304 304 304 304 305 306 307 308 309 310 311 309 308 308 310 311 310 310 309
284 284 284 285 287 287 288 290 291 294 295 296 297 299 301 303 304 306 306 304 305 305 305 306 306 308 309 310 312 313 312 310 310 312 313 313 313 313
Height
5732 5729 5726 5723 5720 5716 5712 5708 5705 5702 5700 5695 5690 5685 5679 5674 5670 5665 5660 5656 5651 5647 5642 5638 5633 5629 5625 5621 5616 5612 5608 5604 5600 5597 5594 5591 5588 5585
5720 5718 5715 5711 5708 5704 5700 5696 5691 5688 5685 5682 5677 5671 5666 5661 5656 5652 5647 5642 5638 5633 5628 5623 5618 5614 5609 5605 5600 5595 5591 5587 5583 5580 5576 5573 5571 5568
5708 5706 5702 5699 5695 5691 5687 5683 5679 5674 5671 5669 5664 5659 5654 5649 5644 5639 5634 5629 5625 5619 5614 5609 5604 5599 5594 5590 5585 5580 5576 5571 5567 5563 5560 5557 5554 5552
5696 5693 5690 5686 5682 5679 5675 5671 5667 5662 5658 5655 5652 5647 5642 5637 5632 5627 5622 5616 5611 5606 5601 5596 5591 5586 5581 5575 5570 5565 5561 5556 5552 5548 5545 5542 5540 5537
5684 5681 5677 5674 5670 5666 5662 5658 5654 5650 5646 5642 5639 5635 5630 5625 5620 5615 5609 5604 5599 5593 5588 5583 5578 5573 5567 5562 5556 5551 5547 5542 5538 5534 5530 5527 5525 5523
5671 5668 5665 5661 5657 5653 5649 5646 5642 5638 5634 5630 5626 5622 5618 5612 5607 5603 5598 5592 5587 5581 5575 5570 5565 5559 5554 5548 5543 5538 5533 5528 5524 5520 5516 5514 5511 5509
5659 5656 5652 5648 5644 5641 5637 5633 5630 5626 5622 5618 5614 5610 5605 5600 5595 5590 5585 5580 5574 5568 5563 5558 5552 5547 5541 5535 5530 5525 5520 5516 5511 5507 5503 5500 5498 5495
5647 5643 5640 5636 5632 5629 5625 5621 5617 5613 5609 5605 5601 5597 5592 5587 5582 5577 5572 5567 5563 5558 5550 5545 5539 5533 5528 5523 5518 5512 5507 5503 5498 5494 5491 5488 5485 5482
5634 5631 5628 5624 5620 5617 5613 5609 5605 5600 5596 5592 5588 5584 5579 5575 5569 5564 5559 5553 5548 5543 5537 5532 5526 5520 5515 5510 5505 5500 5495 5490 5486 5482 5479 5475 5472 5469
5622 5619 5615 5612 5608 5604 5601 5597 5593 5589 5584 5580 5575 5571 5566 5561 5556 5551 5546 5541 5536 5530 5524 5519 5514 5508 5503 5498 5492 5487 5482 5478 5474 5470 5467 5463 5460 5457
5609 5606 5602 5599 5596 5592 5588 5585 5581 5577 5572 5567 5563 5558 5553 5548 5543 5539 5534 5529 5524 5519 5512 5507 5502 5497 5492 5486 5481 5475 5470 5466 5462 5458 5455 5451 5448 5444
5597 5594 5590 5587 5583 5579 5575 5572 5568 5564 5560 5556 5551 5546 5541 5536 5531 5526 5521 5516 5511 5507 5501 5495 5490 5485 5481 5476 5470 5464 5459 5454 5450 5446 5443 5439 5436 5432
5584 5581 5578 5574 5570 5566 5563 5559 5556 5552 5548 5544 5539 5534 5530 5525 5519 5514 5509 5504 5499 5494 5489 5484 5479 5473 5469 5465 5460 5454 5448 5444 5439 5435 5431 5428 5424 5421
5572 5569 5566 5562 5558 5555 5551 5548 5544 5540 5536 5532 5527 5523 5518 5513 5508 5503 5498 5492 5487 5482 5477 5472 5468 5463 5458 5454 5450 5445 5439 5433 5429 5425 5421 5418 5414 5410
5559 5556 5553 5550 5546 5543 5540 5536 5532 5529 5524 5520 5516 5511 5506 5501 5496 5492 5487 5481 5476 5471 5466 5461 5457 5453 5448 5443 5439 5435 5430 5424 5419 5415 5412 5408 5405 5401
5547 5545 5541 5538 5535 5532 5528 5525 5521 5517 5512 5508 5504 5499 5494 5490 5485 5481 5476 5472 5467 5462 5456 5452 5447 5443 5438 5433 5429 5424 5419 5415 5411 5407 5403 5399 5395 5391
5536 5533 5531 5527 5524 5521 5517 5513 5509 5505 5501 5497 5493 5488 5484 5479 5475 5470 5466 5462 5457 5452 5447 5442 5438 5433 5428 5424 5420 5415 5410 5405 5401 5397 5393 5390 5386 5382
5524 5522 5519 5517 5513 5510 5506 5502 5499 5495 5491 5487 5483 5478 5474 5470 5466 5461 5457 5452 5448 5443 5438 5434 5429 5424 5420 5415 5410 5406 5401 5396 5392 5388 5384 5380 5378 5374
5513 5511 5508 5505 5502 5499 5495 5492 5489 5485 5481 5477 5473 5469 5465 5461 5457 5453 5448 5444 5439 5434 5430 5425 5420 5416 5412 5408 5403 5397 5392 5388 5384 5380 5375 5371 5369 5366
5502 5500 5497 5494 5491 5488 5485 5482 5479 5475 5472 5468 5464 5461 5457 5453 5449 5444 5440 5435 5430 5426 5421 5417 5412 5407 5403 5399 5395 5390 5383 5378 5375 5371 5368 5364 5361 5358
5492 5489 5487 5484 5481 5479 5476 5473 5470 5466 5463 5460 5456 5453 5449 5445 5441 5436 5431 5427 5422 5418 5413 5409 5404 5400 5395 5391 5387 5382 5377 5371 5366 5363 5360 5356 5354 5351
5482 5479 5477 5475 5472 5469 5467 5464 5461 5458 5455 5451 5448 5445 5441 5437 5433 5428 5423 5419 5414 5410 5406 5401 5397 5392 5388 5383 5379 5375 5370 5365 5360 5356 5352 5349 5346 5344
5472 5470 5468 5466 5463 5461 5458 5455 5453 5450 5446 5443 5440 5437 5433 5429 5424 5420 5415 5411 5407 5403 5398 5394 5390 5385 5381 5376 5372 5368 5363 5359 5356 5352 5349 5345 5341 5338